• In Slovakia
  • List of Countries
  • For 7 days
  • Water Temperature
  • Satellite Maps
  • Weather Map
  • Weather Widgets
  • user-avatar
    Login

    Hourly Weather Kalgoorlie

    Today, 20 January, Saturday

    Time Temperature Precipitation Wind Pressure Humidity
    00:00 +24°C° 0 mm 8 mps 728 mmHg 57%
    01:00 +23°C° 0 mm 8 mps 728 mmHg 59%
    02:00 +22°C° 0 mm 7 mps 728 mmHg 63%
    03:00 +21°C° 0 mm 7 mps 728 mmHg 65%
    04:00 +21°C° 0 mm 7 mps 728 mmHg 68%
    05:00 +20°C° 0 mm 6 mps 728 mmHg 70%
    06:00 +21°C° 0.2 mm 6 mps 728 mmHg 69%
    07:00 +21°C° 0.2 mm 6 mps 729 mmHg 68%
    08:00 +22°C° 0 mm 5 mps 729 mmHg 64%
    09:00 +23°C° 0 mm 5 mps 729 mmHg 58%
    10:00 +26°C° 0 mm 5 mps 729 mmHg 52%
    11:00 +28°C° 0 mm 5 mps 728 mmHg 46%
    12:00 +30°C° 0 mm 5 mps 728 mmHg 41%
    13:00 +33°C° 0 mm 4 mps 727 mmHg 37%
    14:00 +34°C° 0 mm 4 mps 727 mmHg 35%
    15:00 +34°C° 0 mm 5 mps 727 mmHg 34%
    16:00 +35°C° 0 mm 5 mps 726 mmHg 33%
    17:00 +35°C° 0 mm 5 mps 726 mmHg 32%
    18:00 +34°C° 0 mm 5 mps 726 mmHg 35%
    19:00 +33°C° 0 mm 5 mps 726 mmHg 38%
    20:00 +32°C° 0 mm 6 mps 726 mmHg 40%
    21:00 +30°C° 0 mm 6 mps 726 mmHg 43%
    22:00 +29°C° 0 mm 7 mps 726 mmHg 45%
    23:00 +29°C° 0 mm 7 mps 726 mmHg 47%

    Tomorrow, 21 January, Sunday

    Time Temperature Precipitation Wind Pressure Humidity
    00:00 +28°C° 0.3 mm 7 mps 726 mmHg 50%
    01:00 +28°C° 0.3 mm 6 mps 726 mmHg 52%
    02:00 +27°C° 0.3 mm 6 mps 725 mmHg 55%
    03:00 +26°C° 1 mm 6 mps 725 mmHg 60%
    04:00 +26°C° 1 mm 5 mps 726 mmHg 64%
    05:00 +25°C° 1 mm 5 mps 726 mmHg 69%
    06:00 +26°C° 1.4 mm 6 mps 726 mmHg 69%
    07:00 +26°C° 1.4 mm 7 mps 726 mmHg 68%
    08:00 +26°C° 1.4 mm 7 mps 727 mmHg 68%
    09:00 +28°C° 0.8 mm 7 mps 726 mmHg 62%
    10:00 +30°C° 0.8 mm 7 mps 726 mmHg 57%
    11:00 +32°C° 0.8 mm 7 mps 726 mmHg 51%
    12:00 +33°C° 0.1 mm 7 mps 726 mmHg 47%
    13:00 +35°C° 0.1 mm 7 mps 725 mmHg 43%
    14:00 +36°C° 0.1 mm 6 mps 725 mmHg 40%
    15:00 +36°C° 0 mm 6 mps 725 mmHg 38%
    16:00 +36°C° 0 mm 5 mps 725 mmHg 37%
    17:00 +37°C° 0 mm 5 mps 724 mmHg 35%
    18:00 +35°C° 0.5 mm 5 mps 725 mmHg 40%
    19:00 +34°C° 0.5 mm 5 mps 725 mmHg 44%
    20:00 +33°C° 0.5 mm 5 mps 725 mmHg 48%
    21:00 +30°C° 1.6 mm 5 mps 725 mmHg 54%
    22:00 +29°C° 1.6 mm 5 mps 725 mmHg 59%
    23:00 +28°C° 1.6 mm 5 mps 725 mmHg 65%

    Day after tomorrow, 22 January, Monday

    Time Temperature Precipitation Wind Pressure Humidity
    00:00 +28°C° 1.7 mm 4 mps 725 mmHg 67%
    01:00 +27°C° 1.7 mm 4 mps 725 mmHg 69%
    02:00 +27°C° 1.7 mm 4 mps 725 mmHg 71%
    03:00 +27°C° 1 mm 3 mps 725 mmHg 72%
    04:00 +26°C° 1 mm 3 mps 725 mmHg 74%
    05:00 +26°C° 1 mm 3 mps 725 mmHg 75%
    06:00 +27°C° 0.4 mm 3 mps 726 mmHg 71%
    07:00 +28°C° 0.4 mm 3 mps 726 mmHg 66%
    08:00 +29°C° 0.4 mm 3 mps 727 mmHg 61%
    09:00 +31°C° 0 mm 3 mps 727 mmHg 55%
    10:00 +33°C° 0 mm 3 mps 726 mmHg 49%
    11:00 +35°C° 0 mm 4 mps 726 mmHg 44%
    12:00 +36°C° 0 mm 3 mps 726 mmHg 41%
    13:00 +37°C° 0 mm 3 mps 725 mmHg 38%
    14:00 +38°C° 0 mm 2 mps 725 mmHg 35%
    15:00 +38°C° 0 mm 3 mps 725 mmHg 35%
    16:00 +38°C° 0 mm 3 mps 724 mmHg 34%
    17:00 +38°C° 0 mm 4 mps 724 mmHg 34%
    18:00 +36°C° 9.2 mm 4 mps 724 mmHg 45%
    19:00 +33°C° 9.2 mm 5 mps 724 mmHg 55%
    20:00 +30°C° 9.2 mm 5 mps 725 mmHg 66%
    21:00 +30°C° 5.9 mm 6 mps 725 mmHg 67%
    22:00 +29°C° 5.9 mm 6 mps 725 mmHg 68%
    23:00 +29°C° 5.9 mm 6 mps 726 mmHg 69%

    23 January, Tuesday

    Time Temperature Precipitation Wind Pressure Humidity
    00:00 +28°C° 0.3 mm 7 mps 725 mmHg 69%
    01:00 +27°C° 0.3 mm 7 mps 725 mmHg 70%
    02:00 +27°C° 0.3 mm 7 mps 725 mmHg 70%
    03:00 +26°C° 0.6 mm 7 mps 725 mmHg 70%
    04:00 +26°C° 0.6 mm 6 mps 725 mmHg 71%
    05:00 +25°C° 0.6 mm 5 mps 725 mmHg 71%
    06:00 +26°C° 0.1 mm 5 mps 725 mmHg 67%
    07:00 +27°C° 0.1 mm 6 mps 725 mmHg 64%
    08:00 +28°C° 0.1 mm 6 mps 726 mmHg 60%
    09:00 +30°C° 0.1 mm 6 mps 726 mmHg 54%
    10:00 +33°C° 0.1 mm 6 mps 725 mmHg 49%
    11:00 +34°C° 0.1 mm 5 mps 725 mmHg 43%
    12:00 +36°C° 0 mm 4 mps 725 mmHg 40%
    13:00 +37°C° 0 mm 4 mps 724 mmHg 36%
    14:00 +38°C° 0 mm 3 mps 723 mmHg 33%
    15:00 +38°C° 0 mm 3 mps 723 mmHg 33%
    16:00 +38°C° 0 mm 3 mps 723 mmHg 32%
    17:00 +38°C° 0 mm 4 mps 723 mmHg 32%
    18:00 +35°C° 11.8 mm 5 mps 723 mmHg 46%
    19:00 +32°C° 11.8 mm 7 mps 723 mmHg 60%
    20:00 +28°C° 11.8 mm 8 mps 723 mmHg 73%
    21:00 +28°C° 2.6 mm 8 mps 723 mmHg 72%
    22:00 +28°C° 2.6 mm 8 mps 724 mmHg 71%
    23:00 +28°C° 2.6 mm 7 mps 724 mmHg 70%

    24 January, Wednesday

    Time Temperature Precipitation Wind Pressure Humidity
    00:00 +27°C° 1 mm 7 mps 724 mmHg 71%
    01:00 +27°C° 1 mm 7 mps 723 mmHg 72%
    02:00 +26°C° 1 mm 6 mps 723 mmHg 73%
    03:00 +26°C° 0.3 mm 5 mps 723 mmHg 73%
    04:00 +26°C° 0.3 mm 5 mps 723 mmHg 73%
    05:00 +26°C° 0.3 mm 4 mps 723 mmHg 74%
    06:00 +27°C° 0.2 mm 4 mps 723 mmHg 69%
    07:00 +28°C° 0.2 mm 3 mps 723 mmHg 65%
    08:00 +29°C° 0.2 mm 3 mps 724 mmHg 61%
    09:00 +30°C° 0.2 mm 3 mps 723 mmHg 56%
    10:00 +33°C° 0.2 mm 3 mps 723 mmHg 51%
    11:00 +34°C° 0.2 mm 2 mps 722 mmHg 46%
    12:00 +35°C° 0 mm 2 mps 722 mmHg 42%
    13:00 +37°C° 0 mm 2 mps 721 mmHg 38%
    14:00 +37°C° 0 mm 1 mps 720 mmHg 34%
    15:00 +38°C° 0.3 mm 2 mps 720 mmHg 35%
    16:00 +38°C° 0.3 mm 3 mps 719 mmHg 36%
    17:00 +38°C° 0.3 mm 4 mps 719 mmHg 37%
    18:00 +35°C° 9.7 mm 7 mps 719 mmHg 50%
    19:00 +32°C° 9.7 mm 9 mps 719 mmHg 64%
    20:00 +28°C° 9.7 mm 11 mps 720 mmHg 78%
    21:00 +27°C° 1.1 mm 11 mps 720 mmHg 78%
    22:00 +27°C° 1.1 mm 10 mps 720 mmHg 78%
    23:00 +26°C° 1.1 mm 10 mps 720 mmHg 78%

    25 January, Thursday

    Time Temperature Precipitation Wind Pressure Humidity
    00:00 +26°C° 1.4 mm 9 mps 720 mmHg 78%
    01:00 +24°C° 1.4 mm 7 mps 720 mmHg 79%
    02:00 +24°C° 1.4 mm 6 mps 720 mmHg 80%
    03:00 +24°C° 0.7 mm 6 mps 720 mmHg 81%
    04:00 +25°C° 0.7 mm 5 mps 720 mmHg 82%
    05:00 +23°C° 0.7 mm 5 mps 721 mmHg 83%
    06:00 +25°C° 0.1 mm 5 mps 721 mmHg 81%
    07:00 +24°C° 0.1 mm 6 mps 721 mmHg 80%
    08:00 +24°C° 0.1 mm 6 mps 722 mmHg 79%
    09:00 +26°C° 0 mm 6 mps 721 mmHg 73%
    10:00 +28°C° 0 mm 6 mps 721 mmHg 67%
    11:00 +29°C° 0 mm 6 mps 721 mmHg 61%
    12:00 +30°C° 0 mm 5 mps 721 mmHg 58%
    13:00 +32°C° 0 mm 5 mps 720 mmHg 54%
    14:00 +32°C° 0 mm 5 mps 720 mmHg 51%
    15:00 +33°C° 0 mm 5 mps 720 mmHg 50%
    16:00 +33°C° 0 mm 6 mps 720 mmHg 49%
    17:00 +33°C° 0 mm 6 mps 720 mmHg 48%
    18:00 +32°C° 0 mm 7 mps 721 mmHg 51%
    19:00 +30°C° 0 mm 7 mps 721 mmHg 54%
    20:00 +29°C° 0 mm 7 mps 722 mmHg 57%
    21:00 +28°C° 0 mm 7 mps 722 mmHg 61%
    22:00 +26°C° 0 mm 8 mps 722 mmHg 65%
    23:00 +24°C° 0 mm 8 mps 722 mmHg 69%
    Show more